DW4691 Weather Reports


time (UTC)temp
C
wind
direction
speed
KPH
gust
KPH
rain 1hr
cm
rain 24hr
cm
rain mn
cm
humidity
%
barometer
mb
20260505220052 28 0 0.0 6.4 0.00 0.00 0.00 73 1006.5
20260505214548 28 0 0.0 11.3 0.00 0.00 0.00 74 1006.8
20260505213045 28 0 0.0 6.4 0.00 0.00 0.00 74 1007.0
20260505211549 29 0 0.0 6.4 0.00 0.00 0.00 71 1007.1
20260505210056 29 0 0.0 6.4 0.00 0.00 0.00 73 1007.1
20260505204549 29 116 0.0 6.4 0.00 0.00 0.00 74 1007.2
20260505203040 28 263 0.0 6.4 0.00 0.00 0.00 76 1007.4
20260505201549 28 0 0.0 8.0 0.00 0.00 0.00 76 1007.7
20260505200048 28 0 1.6 6.4 0.00 0.00 0.00 74 1007.9
20260505194545 28 0 0.0 14.5 0.00 0.00 0.00 76 1008.1
20260505193101 28 148 1.6 11.3 0.00 0.00 0.00 75 1008.3
20260505191543 28 0 0.0 8.0 0.00 0.00 0.00 75 1008.3
20260505190049 28 0 0.0 8.0 0.00 0.00 0.00 76 1008.4
20260505184549 28 0 0.0 9.7 0.00 0.00 0.00 79 1008.5
20260505183051 27 0 0.0 8.0 0.00 0.00 0.00 82 1008.7
20260505181546 26 0 0.0 4.8 0.00 0.00 0.00 82 1008.9
20260505180040 26 0 0.0 9.7 0.00 0.00 0.00 82 1008.9
20260505174549 26 0 0.0 6.4 0.00 0.00 0.00 82 1009.0
20260505173054 26 0 0.0 6.4 0.00 0.00 0.00 81 1009.1
20260505171544 26 89 1.6 9.7 0.00 0.00 0.00 81 1009.1
20260505170043 26 0 0.0 4.8 0.00 0.00 0.00 83 1009.2
20260505164551 26 0 0.0 11.3 0.00 0.00 0.00 84 1009.4
20260505163051 26 0 0.0 4.8 0.00 0.00 0.00 84 1009.4
20260505161548 25 0 0.0 1.6 0.00 0.00 0.00 85 1009.3
20260505153043 25 0 0.0 12.9 0.00 0.00 0.00 85 1009.0
20260505151538 25 141 0.0 11.3 0.00 0.00 0.00 85 1009.0
20260505124553 22 0 0.0 0.0 0.00 0.00 0.00 90 1008.5
20260505123042 22 0 0.0 0.0 0.00 0.00 0.00 90 1008.2
20260505121546 21 0 0.0 3.2 0.00 0.00 0.00 90 1008.5
20260505120046 21 0 0.0 0.0 0.00 0.00 0.00 90 1008.3
20260505114544 21 0 0.0 3.2 0.00 0.00 0.00 90 1008.0
20260505113044 21 0 0.0 4.8 0.00 0.00 0.00 90 1008.2
20260505111543 21 0 0.0 0.0 0.00 0.00 0.00 90 1008.3
20260505101550 21 0 0.0 0.0 0.00 0.00 0.00 89 1008.3
20260505100045 21 0 0.0 0.0 0.00 0.00 0.00 89 1008.3
20260505094547 21 0 0.0 0.0 0.00 0.00 0.00 89 1008.5
20260505093057 21 0 0.0 0.0 0.00 0.00 0.00 89 1008.5
20260505091549 21 0 0.0 0.0 0.00 0.00 0.00 89 1008.6
20260505090048 21 0 0.0 0.0 0.00 0.00 0.00 88 1008.6
20260505084553 21 0 0.0 0.0 0.00 0.00 0.00 88 1008.7
20260505083055 21 0 0.0 3.2 0.00 0.00 0.00 87 1008.7
20260505081556 21 0 0.0 1.6 0.00 0.00 0.00 87 1009.1
20260505080048 21 0 0.0 1.6 0.00 0.00 0.00 87 1009.1
20260505074549 21 0 0.0 0.0 0.00 0.00 0.00 87 1009.3
20260505073046 21 0 0.0 1.6 0.00 0.00 0.00 86 1009.3
20260505071547 21 0 0.0 4.8 0.00 0.00 0.00 86 1009.5
20260505070041 21 0 0.0 1.6 0.00 0.00 0.00 85 1009.7
20260505064546 21 0 0.0 1.6 0.00 0.00 0.00 85 1009.9
20260505063047 21 0 0.0 3.2 0.00 0.00 0.00 85 1009.8
20260505061552 21 0 0.0 4.8 0.00 0.00 0.00 84 1010.0
20260505060049 21 148 0.0 4.8 0.00 0.00 0.00 84 1010.2
20260505054555 21 0 0.0 8.0 0.00 0.00 0.00 84 1010.2
20260505053044 21 0 0.0 4.8 0.00 0.00 0.00 83 1010.4
20260505051541 21 0 0.0 1.6 0.00 0.00 0.00 83 1010.5
20260505041548 22 0 0.0 4.8 0.00 0.00 0.00 80 1010.6
20260505040044 22 0 0.0 14.5 0.00 0.00 0.00 79 1010.5
20260505034551 22 134 0.0 3.2 0.00 0.00 0.00 78 1010.7
20260505033046 22 0 0.0 6.4 0.00 0.00 0.00 78 1010.8
20260505031555 22 0 0.0 8.0 0.00 0.00 0.00 78 1011.0
20260505030100 23 0 0.0 8.0 0.00 0.00 0.00 77 1010.7
20260505024550 23 0 0.0 20.9 0.00 0.00 0.00 76 1010.6
20260505023047 23 0 0.0 8.0 0.00 0.00 0.00 75 1010.5
20260505021541 23 109 1.6 16.1 0.00 0.00 0.00 74 1010.4
20260505020050 23 0 0.0 6.4 0.00 0.00 0.00 75 1010.4
20260505014601 23 0 0.0 6.4 0.00 0.00 0.00 75 1010.2
20260505013044 23 0 0.0 6.4 0.00 0.00 0.00 75 1010.1
20260505011549 23 0 0.0 4.8 0.00 0.00 0.00 74 1009.7
20260505010041 24 0 0.0 6.4 0.00 0.00 0.00 73 1010.0
20260505004554 24 0 0.0 3.2 0.00 0.00 0.00 72 1009.9
20260505003044 25 0 0.0 6.4 0.00 0.00 0.00 70 1009.7
20260505001545 25 115 0.0 9.7 0.00 0.00 0.00 69 1009.8
20260505000047 25 0 0.0 3.2 0.00 0.00 0.00 68 1010.1
20260504234541 25 112 0.0 9.7 0.00 0.00 0.00 69 1010.0
20260504233046 26 0 0.0 11.3 0.00 0.00 0.00 67 1010.1
20260504231544 26 0 0.0 6.4 0.00 0.00 0.00 67 1010.2
20260504230053 26 0 0.0 6.4 0.00 0.00 0.00 64 1010.5
20260504224551 26 120 0.0 9.7 0.00 0.00 0.00 64 1010.5
20260504223047 26 0 0.0 6.4 0.00 0.00 0.00 64 1010.7
20260504221546 27 151 0.0 8.0 0.00 0.00 0.00 63 1010.9